﻿_id,日時,平均風速(m/s),平均風向,最大瞬間風速(m/s),最大風速時風向,気温(℃),湿度(%),10分間移動積算雨量(mm),1時間移動積算雨量(mm),日雨量(mm),累計雨量(mm)
1,2024-02-05T00:00:00,1,西北西,1.7,西,2.4,90,0,0,0.5,0.5
2,2024-02-05T00:01:00,1,西北西,1.7,西,2.5,89.8,0,0,0,0.5
3,2024-02-05T00:02:00,1,西北西,1.7,西,2.5,89.6,0,0,0,0.5
4,2024-02-05T00:03:00,1,西北西,1.7,西,2.5,89.6,0,0,0,0.5
5,2024-02-05T00:04:00,0.9,西北西,1.7,西,2.5,89.5,0,0,0,0.5
6,2024-02-05T00:05:00,0.9,西北西,1.7,西,2.5,89.6,0,0,0,0.5
7,2024-02-05T00:06:00,1,西,1.7,西,2.5,89.9,0,0,0,0.5
8,2024-02-05T00:07:00,1,西,1.7,西,2.5,89.6,0,0,0,0.5
9,2024-02-05T00:08:00,1,西,1.7,西,2.5,89.6,0,0,0,0.5
10,2024-02-05T00:09:00,1,西,1.7,西,2.5,89.4,0,0,0,0.5
11,2024-02-05T00:10:00,1,西,1.7,西,2.5,89.5,0,0,0,0.5
12,2024-02-05T00:11:00,1.1,西,1.7,西,2.6,88.7,0,0,0,0.5
13,2024-02-05T00:12:00,1.1,西,1.7,西,2.6,88.8,0,0,0,0.5
14,2024-02-05T00:13:00,1.2,西,1.7,西,2.6,88.7,0,0,0,0.5
15,2024-02-05T00:14:00,1.2,西,1.7,西,2.6,88.7,0,0,0,0.5
16,2024-02-05T00:15:00,1.2,西,1.7,西,2.5,88.9,0,0,0,0.5
17,2024-02-05T00:16:00,1.3,西,1.8,西,2.5,89.3,0,0,0,0.5
18,2024-02-05T00:17:00,1.3,西,2,西北西,2.5,89.7,0,0,0,0.5
19,2024-02-05T00:18:00,1.3,西,2.5,西,2.4,90.1,0,0,0,0.5
20,2024-02-05T00:19:00,1.4,西,2.5,西,2.4,90.5,0,0,0,0.5
21,2024-02-05T00:20:00,1.4,西北西,2.5,西,2.4,90.8,0,0,0,0.5
22,2024-02-05T00:21:00,1.4,西北西,2.5,西,2.4,91.1,0,0,0,0.5
23,2024-02-05T00:22:00,1.5,西北西,2.5,西,2.4,90.9,0,0,0,0.5
24,2024-02-05T00:23:00,1.5,西北西,2.5,西,2.4,90.7,0,0,0,0.5
25,2024-02-05T00:24:00,1.5,西北西,2.5,西,2.4,90.8,0,0,0,0.5
26,2024-02-05T00:25:00,1.5,西北西,2.5,西,2.5,90.4,0,0,0,0.5
27,2024-02-05T00:26:00,1.5,西北西,2.5,西,2.5,89.7,0,0,0,0.5
28,2024-02-05T00:27:00,1.5,西北西,2.5,西,2.5,89.3,0,0,0,0.5
29,2024-02-05T00:28:00,1.4,西北西,2.4,西北西,2.5,89.2,0,0,0,0.5
30,2024-02-05T00:29:00,1.3,西北西,2,西,2.5,89.3,0,0,0,0.5
31,2024-02-05T00:30:00,1.3,西北西,1.9,西北西,2.4,89.4,0,0,0,0.5
32,2024-02-05T00:31:00,1.2,西北西,1.8,西北西,2.4,89.6,0,0,0,0.5
33,2024-02-05T00:32:00,1.3,西北西,1.8,西北西,2.5,89.6,0,0,0,0.5
34,2024-02-05T00:33:00,1.2,西北西,1.8,西北西,2.4,89.5,0,0,0,0.5
35,2024-02-05T00:34:00,1.2,西北西,1.8,西,2.5,89.4,0,0,0,0.5
36,2024-02-05T00:35:00,1.2,西北西,2,西,2.5,89.1,0,0,0,0.5
37,2024-02-05T00:36:00,1.3,西北西,2.1,西,2.5,89,0,0,0,0.5
38,2024-02-05T00:37:00,1.3,西,2.2,西,2.4,89.1,0,0,0,0.5
39,2024-02-05T00:38:00,1.4,西,2.2,西,2.5,89.1,0,0,0,0.5
40,2024-02-05T00:39:00,1.3,西,2.2,西,2.6,88.8,0,0,0,0.5
41,2024-02-05T00:40:00,1.3,西,2.2,西,2.5,88.6,0,0,0,0.5
42,2024-02-05T00:41:00,1.3,西,2.2,西,2.5,88.6,0,0,0,0.5
43,2024-02-05T00:42:00,1.3,西,2.2,西,2.5,88.7,0,0,0,0.5
44,2024-02-05T00:43:00,1.3,西,2.2,西,2.4,89.1,0,0,0,0.5
45,2024-02-05T00:44:00,1.3,西,2.2,西,2.4,89.3,0,0,0,0.5
46,2024-02-05T00:45:00,1.3,西,2.2,西,2.3,89.8,0,0,0,0.5
47,2024-02-05T00:46:00,1.3,西,2.2,西,2.3,90.1,0,0,0,0.5
48,2024-02-05T00:47:00,1.3,西,2.1,西,2.3,90.4,0,0,0,0.5
49,2024-02-05T00:48:00,1.3,西,2.3,西北西,2.3,90.5,0,0,0,0.5
50,2024-02-05T00:49:00,1.4,西,2.3,西北西,2.5,90.1,0,0,0,0.5
51,2024-02-05T00:50:00,1.6,西,2.3,西北西,2.5,89.4,0,0,0,0.5
52,2024-02-05T00:51:00,1.6,西,2.3,西北西,2.7,88.3,0,0,0,0.5
53,2024-02-05T00:52:00,1.6,西北西,2.3,西北西,2.7,87.5,0,0,0,0.5
54,2024-02-05T00:53:00,1.6,西北西,2.3,西北西,2.8,86.8,0,0,0,0.5
55,2024-02-05T00:54:00,1.6,西北西,2.3,西北西,2.8,86.6,0,0,0,0.5
56,2024-02-05T00:55:00,1.7,西北西,2.7,西,2.7,86.6,0,0,0,0.5
57,2024-02-05T00:56:00,1.8,西北西,2.8,西,2.6,87.1,0,0,0,0.5
58,2024-02-05T00:57:00,1.7,西北西,2.8,西,2.6,87.7,0,0,0,0.5
59,2024-02-05T00:58:00,1.7,西北西,2.8,西,2.6,87.9,0,0,0,0.5
60,2024-02-05T00:59:00,1.7,西北西,2.8,西,2.5,88.4,0,0,0,0.5
61,2024-02-05T01:00:00,1.6,西北西,2.8,西,2.5,89,0,0,0,0.5
62,2024-02-05T01:01:00,1.7,西北西,2.8,西,2.5,89.6,0,0,0,0.5
63,2024-02-05T01:02:00,1.7,西北西,2.8,西,2.5,89.4,0,0,0,0.5
64,2024-02-05T01:03:00,1.7,西北西,2.8,西,2.5,89.6,0,0,0,0.5
65,2024-02-05T01:04:00,1.7,西北西,2.8,西,2.4,90,0,0,0,0.5
66,2024-02-05T01:05:00,1.5,西北西,2.8,西,2.4,90.6,0,0,0,0.5
67,2024-02-05T01:06:00,1.4,北西,2.5,西北西,2.5,91,0,0,0,0.5
68,2024-02-05T01:07:00,1.5,北西,3.1,北北西,2.6,90.7,0,0,0,0.5
69,2024-02-05T01:08:00,1.6,北西,3.1,北北西,2.6,90,0,0,0,0.5
70,2024-02-05T01:09:00,1.6,北西,3.1,北北西,2.7,89.5,0,0,0,0.5
71,2024-02-05T01:10:00,1.6,北西,3.1,北北西,2.8,88.8,0,0,0,0.5
72,2024-02-05T01:11:00,1.6,北北西,3.1,北北西,3,87.5,0,0,0,0.5
73,2024-02-05T01:12:00,1.5,北北西,3.1,北北西,3,87.4,0,0,0,0.5
74,2024-02-05T01:13:00,1.4,北北西,3.1,北北西,3,86.7,0,0,0,0.5
75,2024-02-05T01:14:00,1.4,北北西,3.1,北北西,3,86.3,0,0,0,0.5
76,2024-02-05T01:15:00,1.4,北北西,3.1,北北西,2.9,86.5,0,0,0,0.5
77,2024-02-05T01:16:00,1.5,北北西,3.1,北北西,3.2,85,0,0,0,0.5
78,2024-02-05T01:17:00,1.4,北北西,2.6,北西,3.4,83.2,0,0,0,0.5
79,2024-02-05T01:18:00,1.3,北北西,2.6,北西,3.4,82.3,0,0,0,0.5
80,2024-02-05T01:19:00,1.2,北北西,2.3,北,3.4,82,0,0,0,0.5
81,2024-02-05T01:20:00,1.1,北北西,2.3,北,3.5,80.4,0,0,0,0.5
82,2024-02-05T01:21:00,1,北北西,2.3,北,3.5,80.3,0,0,0,0.5
83,2024-02-05T01:22:00,1,北北西,2.3,北,3.6,80.3,0,0,0,0.5
84,2024-02-05T01:23:00,1,北北西,2.3,北,3.6,79.4,0,0,0,0.5
85,2024-02-05T01:24:00,1,北西,2.3,北,3.3,81.6,0,0,0,0.5
86,2024-02-05T01:25:00,,"",,"",,,,,,
87,2024-02-05T01:26:00,0.8,北西,1.8,北北東,3.4,81,0,0,0,0.5
88,2024-02-05T01:27:00,0.8,西北西,1.5,北北西,3.3,81.9,0,0,0,0.5
89,2024-02-05T01:28:00,0.7,西北西,1.5,北北西,3.4,81.6,0,0,0,0.5
90,2024-02-05T01:29:00,0.7,西,1.3,西北西,3.5,81.1,0,0,0,0.5
91,2024-02-05T01:30:00,0.6,西,1.3,西北西,3.5,80.9,0,0,0,0.5
92,2024-02-05T01:31:00,0.6,西,1.2,西北西,3.5,81.3,0,0,0,0.5
93,2024-02-05T01:32:00,0.6,西,1.2,西北西,3.5,80.7,0,0,0,0.5
94,2024-02-05T01:33:00,0.6,西,1.2,西北西,3.5,81.3,0,0,0,0.5
95,2024-02-05T01:34:00,0.6,西,1.2,西北西,3.5,81,0,0,0,0.5
96,2024-02-05T01:35:00,0.7,西北西,1.6,北北西,3.4,82.4,0,0,0,0.5
97,2024-02-05T01:36:00,0.7,西北西,1.7,北北西,3.4,82.4,0,0,0,0.5
98,2024-02-05T01:37:00,0.7,西北西,1.7,北北西,3.4,82.3,0,0,0,0.5
99,2024-02-05T01:38:00,0.8,西北西,1.7,北北西,3.6,81.6,0,0,0,0.5
100,2024-02-05T01:39:00,0.9,北西,1.7,北北西,3.5,81.6,0,0,0,0.5
101,2024-02-05T01:40:00,1,北西,1.7,北北西,3.6,81.4,0,0,0,0.5
102,2024-02-05T01:41:00,1,北西,1.7,北北西,3.6,81.2,0,0,0,0.5
103,2024-02-05T01:42:00,1,北西,1.7,北北西,3.8,79.5,0,0,0,0.5
104,2024-02-05T01:43:00,1.1,北西,1.7,北北西,3.8,79.4,0,0,0,0.5
105,2024-02-05T01:44:00,1.1,北西,1.7,北北西,3.6,80.7,0,0,0,0.5
106,2024-02-05T01:45:00,1,北西,1.7,北北西,3.6,81.6,0,0,0,0.5
107,2024-02-05T01:46:00,0.9,北西,1.7,西,3.7,82,0,0,0,0.5
108,2024-02-05T01:47:00,0.8,西北西,1.7,西,3.5,82.3,0,0,0,0.5
109,2024-02-05T01:48:00,0.7,北西,1.7,西,3.3,83.2,0,0,0,0.5
110,2024-02-05T01:49:00,0.7,北西,1.7,西,3.3,83.3,0,0,0,0.5
111,2024-02-05T01:50:00,0.7,北西,1.7,西,3.3,83.6,0,0,0,0.5
112,2024-02-05T01:51:00,0.8,北西,1.7,西,3.3,84.4,0,0,0,0.5
113,2024-02-05T01:52:00,0.8,北西,1.9,北西,3.4,83.2,0,0,0,0.5
114,2024-02-05T01:53:00,0.9,北北西,2.6,北北西,3.7,80.4,0,0,0,0.5
115,2024-02-05T01:54:00,1,北西,2.6,北北西,4.1,78.4,0,0,0,0.5
116,2024-02-05T01:55:00,1.1,北西,2.6,北北西,4.1,77,0,0,0,0.5
117,2024-02-05T01:56:00,1.3,北西,2.6,北北西,4.1,77.1,0,0,0,0.5
118,2024-02-05T01:57:00,1.4,北西,2.6,北北西,4,77.2,0,0,0,0.5
119,2024-02-05T01:58:00,1.5,北西,2.6,北北西,3.7,79.1,0,0,0,0.5
120,2024-02-05T01:59:00,1.5,北西,2.6,北北西,3.7,79.9,0,0,0,0.5
121,2024-02-05T02:00:00,1.6,北西,2.6,北北西,3.8,79,0,0,0,0.5
122,2024-02-05T02:01:00,1.7,北西,2.6,北北西,3.8,78.7,0,0,0,0.5
123,2024-02-05T02:02:00,1.7,北西,2.6,北北西,3.8,78.8,0,0,0,0.5
124,2024-02-05T02:03:00,1.7,北西,2.4,北北西,3.8,79.4,0,0,0,0.5
125,2024-02-05T02:04:00,1.7,北西,2.4,北北西,3.7,80.2,0,0,0,0.5
126,2024-02-05T02:05:00,1.7,北西,2.4,北北西,3.7,80.3,0,0,0,0.5
127,2024-02-05T02:06:00,1.7,北西,2.4,北北西,3.7,80.4,0,0,0,0.5
128,2024-02-05T02:07:00,1.7,北西,2.5,北西,3.7,80.2,0,0,0,0.5
129,2024-02-05T02:08:00,1.7,北西,2.7,北北西,3.8,80,0,0,0,0.5
130,2024-02-05T02:09:00,1.7,北西,2.7,北北西,3.9,79.3,0,0,0,0.5
131,2024-02-05T02:10:00,1.7,北西,2.7,北北西,3.8,79.3,0,0,0,0.5
132,2024-02-05T02:11:00,1.6,北西,2.7,北北西,3.8,79.5,0,0,0,0.5
133,2024-02-05T02:12:00,1.6,北西,2.7,北北西,3.8,79.3,0,0,0,0.5
134,2024-02-05T02:13:00,1.6,北西,2.7,北北西,3.9,79.2,0,0,0,0.5
135,2024-02-05T02:14:00,1.6,北西,3.5,北北西,3.9,79,0,0,0,0.5
136,2024-02-05T02:15:00,1.6,北西,3.5,北北西,3.9,78.9,0,0,0,0.5
137,2024-02-05T02:16:00,1.7,北西,3.5,北北西,4,78.8,0,0,0,0.5
138,2024-02-05T02:17:00,1.7,北西,3.5,北北西,3.9,78.8,0,0,0,0.5
139,2024-02-05T02:18:00,1.7,北西,3.5,北北西,3.9,78.9,0,0,0,0.5
140,2024-02-05T02:19:00,1.8,北西,3.5,北北西,4,78,0,0,0,0.5
141,2024-02-05T02:20:00,1.8,北北西,3.5,北北西,4,78.3,0,0,0,0.5
142,2024-02-05T02:21:00,1.9,北北西,3.5,北北西,4,78.3,0,0,0,0.5
143,2024-02-05T02:22:00,1.9,北北西,3.5,北北西,3.9,79.1,0,0,0,0.5
144,2024-02-05T02:23:00,1.9,北北西,3.5,北北西,3.9,79.4,0,0,0,0.5
145,2024-02-05T02:24:00,1.8,北北西,3.1,北北西,4.1,78,0,0,0,0.5
146,2024-02-05T02:25:00,1.9,北北西,3.4,北,4.1,77.6,0,0,0,0.5
147,2024-02-05T02:26:00,1.9,北北西,3.5,北北西,4,78.7,0,0,0,0.5
148,2024-02-05T02:27:00,2,北北西,4.1,北,3.9,79.5,0,0,0,0.5
149,2024-02-05T02:28:00,2,北北西,4.1,北,3.8,80,0,0,0,0.5
150,2024-02-05T02:29:00,2,北,4.1,北,3.9,79.9,0,0,0,0.5
151,2024-02-05T02:30:00,1.9,北,4.1,北,3.9,79.7,0,0,0,0.5
152,2024-02-05T02:31:00,1.9,北,4.1,北,4.1,78.1,0,0,0,0.5
153,2024-02-05T02:32:00,1.9,北,4.1,北,4.1,78.4,0,0,0,0.5
154,2024-02-05T02:33:00,1.9,北,4.1,北,4.1,77.9,0,0,0,0.5
155,2024-02-05T02:34:00,1.9,北,4.1,北,4.1,77.9,0,0,0,0.5
156,2024-02-05T02:35:00,1.8,北,4.1,北,4.1,77.9,0,0,0,0.5
157,2024-02-05T02:36:00,1.7,北,4.1,北,4,78.2,0,0,0,0.5
158,2024-02-05T02:37:00,1.6,北,3.4,北,4,78.1,0,0,0,0.5
159,2024-02-05T02:38:00,1.5,北北西,2.9,北,4.1,77.8,0,0,0,0.5
160,2024-02-05T02:39:00,1.4,北北西,2.9,北,4.1,77.5,0,0,0,0.5
161,2024-02-05T02:40:00,1.3,北北西,2.9,北,4.1,77.8,0,0,0,0.5
162,2024-02-05T02:41:00,1.1,北北西,2.9,北,4.1,77.4,0,0,0,0.5
163,2024-02-05T02:42:00,1,北北西,2.9,北,4.1,77.3,0,0,0,0.5
164,2024-02-05T02:43:00,0.9,北北西,2.9,北,4.3,76.6,0,0,0,0.5
165,2024-02-05T02:44:00,0.8,北北西,2.9,北,4.3,76.7,0,0,0,0.5
166,2024-02-05T02:45:00,0.8,北北西,2.9,北,4.3,76.5,0,0,0,0.5
167,2024-02-05T02:46:00,0.7,北北西,2.1,北,4.3,76,0,0,0,0.5
168,2024-02-05T02:47:00,0.7,北北西,1.8,北,4.4,75.6,0,0,0,0.5
169,2024-02-05T02:48:00,0.6,北北西,1.8,北,4.3,75.3,0,0,0,0.5
170,2024-02-05T02:49:00,0.6,北北西,1.8,北,4.3,75.5,0,0,0,0.5
171,2024-02-05T02:50:00,0.6,北北西,1.8,北,4.4,75.1,0,0,0,0.5
172,2024-02-05T02:51:00,0.7,北北西,1.8,北,4.4,74.8,0,0,0,0.5
173,2024-02-05T02:52:00,0.7,北北西,1.8,北,4.4,74.9,0,0,0,0.5
174,2024-02-05T02:53:00,0.8,北北西,1.8,北,4.5,74.4,0,0,0,0.5
175,2024-02-05T02:54:00,0.9,北西,2.4,北西,4.6,73.8,0,0,0,0.5
176,2024-02-05T02:55:00,1,北西,2.4,北西,4.4,74.7,0,0,0,0.5
177,2024-02-05T02:56:00,1,北西,2.4,北西,4.3,75.9,0,0,0,0.5
178,2024-02-05T02:57:00,1,北西,2.4,北西,4.3,76.2,0,0,0,0.5
179,2024-02-05T02:58:00,1.1,北北西,2.4,北西,4.3,76,0,0,0,0.5
180,2024-02-05T02:59:00,1.1,北北西,2.4,北西,4.2,77,0,0,0,0.5
181,2024-02-05T03:00:00,1.2,北北西,2.4,北西,4.1,77.9,0,0,0,0.5
182,2024-02-05T03:01:00,1.2,北,2.4,北西,4,78.9,0,0,0,0.5
183,2024-02-05T03:02:00,1.2,北,2.4,北西,4,79.3,0,0,0,0.5
184,2024-02-05T03:03:00,1.2,北,2.4,北西,4.1,79.5,0,0,0,0.5
185,2024-02-05T03:04:00,1.1,北,2.2,北北西,4.1,78.7,0,0,0,0.5
186,2024-02-05T03:05:00,1.1,北,2.2,北北西,4.2,78.3,0,0,0,0.5
187,2024-02-05T03:06:00,1.1,北,2.2,北北西,4.1,78.5,0,0,0,0.5
188,2024-02-05T03:07:00,1,北,2.2,北北西,4.2,78.9,0,0,0,0.5
189,2024-02-05T03:08:00,1,北,2.2,北北西,4.2,78.9,0,0,0,0.5
190,2024-02-05T03:09:00,1,北,2.2,北北西,4.2,78.6,0,0,0,0.5
191,2024-02-05T03:10:00,0.9,北,1.8,北,4.2,78.3,0,0,0,0.5
192,2024-02-05T03:11:00,0.9,北,1.8,北,4.2,78,0,0,0,0.5
193,2024-02-05T03:12:00,0.9,北,1.5,北,4.2,78.8,0,0,0,0.5
194,2024-02-05T03:13:00,0.9,北,1.6,北,4.2,78.6,0,0,0,0.5
195,2024-02-05T03:14:00,0.9,北,2.1,北東,4.3,77.1,0,0,0,0.5
196,2024-02-05T03:15:00,1,北,2.1,北東,4.3,77.1,0,0,0,0.5
197,2024-02-05T03:16:00,1,北,2.1,北東,4.3,77.5,0,0,0,0.5
198,2024-02-05T03:17:00,1.1,北,2.1,北東,4.3,76.9,0,0,0,0.5
199,2024-02-05T03:18:00,1.1,北,2.1,北東,4.3,77.3,0,0,0,0.5
200,2024-02-05T03:19:00,1.1,北,2.1,北東,4.3,77.1,0,0,0,0.5
201,2024-02-05T03:20:00,1.2,北,2.6,北北西,4.3,77.6,0,0,0,0.5
202,2024-02-05T03:21:00,1.3,北,2.7,北,4.2,77.6,0,0,0,0.5
203,2024-02-05T03:22:00,1.5,北,3.1,北北西,4.2,77.7,0,0,0,0.5
204,2024-02-05T03:23:00,1.6,北,3.1,北北西,4.2,77.4,0,0,0,0.5
205,2024-02-05T03:24:00,1.7,北,3.1,北北西,4.3,77.5,0,0,0,0.5
206,2024-02-05T03:25:00,1.7,北,3.1,北北西,4.3,77,0,0,0,0.5
207,2024-02-05T03:26:00,1.8,北,3.1,北北西,4.3,77.1,0,0,0,0.5
208,2024-02-05T03:27:00,1.9,北,3.1,北北西,4.3,77.2,0,0,0,0.5
209,2024-02-05T03:28:00,1.9,北,3.1,北北西,4.3,77.6,0,0,0,0.5
210,2024-02-05T03:29:00,2,北,4.1,北北西,4.2,77.7,0,0,0,0.5
211,2024-02-05T03:30:00,2.1,北,4.1,北北西,4.2,77.9,0,0,0,0.5
212,2024-02-05T03:31:00,2.1,北,4.1,北北西,4.2,77.7,0,0,0,0.5
213,2024-02-05T03:32:00,2,北,4.1,北北西,4.3,77.4,0,0,0,0.5
214,2024-02-05T03:33:00,1.9,北,4.1,北北西,4.3,76.6,0,0,0,0.5
215,2024-02-05T03:34:00,2,北,4.1,北北西,4.3,77.3,0,0,0,0.5
216,2024-02-05T03:35:00,2.1,北,4.1,北北西,4.3,77.3,0,0,0,0.5
217,2024-02-05T03:36:00,2.1,北,4.1,北北西,4.3,76.8,0,0,0,0.5
218,2024-02-05T03:37:00,2.1,北北西,4.1,北北西,4.4,75.7,0,0,0,0.5
219,2024-02-05T03:38:00,2.1,北北西,4.1,北北西,4.4,76.7,0,0,0,0.5
220,2024-02-05T03:39:00,2.3,北北西,4.2,北北西,4.3,77.2,0,0,0,0.5
221,2024-02-05T03:40:00,2.3,北北西,4.2,北北西,4.3,77.6,0,0,0,0.5
222,2024-02-05T03:41:00,2.4,北北西,4.2,北北西,4.2,77.7,0,0,0,0.5
223,2024-02-05T03:42:00,2.6,北北西,4.3,北北西,4.3,76.6,0,0,0,0.5
224,2024-02-05T03:43:00,2.7,北北西,4.3,北北西,4.4,75.6,0,0,0,0.5
225,2024-02-05T03:44:00,2.7,北北西,4.3,北北西,4.4,75.5,0,0,0,0.5
226,2024-02-05T03:45:00,2.7,北北西,4.3,北北西,4.4,75.7,0,0,0,0.5
227,2024-02-05T03:46:00,2.7,北北西,4.3,北北西,4.4,76.2,0,0,0,0.5
228,2024-02-05T03:47:00,2.6,北,4.3,北北西,4.3,76.8,0,0,0,0.5
229,2024-02-05T03:48:00,2.6,北,4.3,北北西,4.3,76.3,0,0,0,0.5
230,2024-02-05T03:49:00,2.6,北,4.3,北北西,4.4,75.9,0,0,0,0.5
231,2024-02-05T03:50:00,2.5,北,4.3,北北西,4.5,74.5,0,0,0,0.5
232,2024-02-05T03:51:00,2.4,北,4.3,北北西,4.5,75.3,0,0,0,0.5
233,2024-02-05T03:52:00,2.3,北,4,北,4.4,75,0,0,0,0.5
234,2024-02-05T03:53:00,2.3,北,3.9,北,4.5,75.1,0,0,0,0.5
235,2024-02-05T03:54:00,2.4,北北西,3.9,北,4.4,74.9,0,0,0,0.5
236,2024-02-05T03:55:00,2.4,北北西,3.9,北,4.7,72.1,0,0,0,0.5
237,2024-02-05T03:56:00,2.4,北北西,3.9,北,4.8,71,0,0,0,0.5
238,2024-02-05T03:57:00,2.4,北北西,3.9,北,4.7,72.3,0,0,0,0.5
239,2024-02-05T03:58:00,2.4,北北西,4.1,北西,4.6,72.5,0,0,0,0.5
240,2024-02-05T03:59:00,2.4,北北西,5.2,北西,4.8,70.2,0,0,0,0.5
241,2024-02-05T04:00:00,2.6,北北西,5.8,北北西,4.8,71.1,0,0,0,0.5
242,2024-02-05T04:01:00,2.8,北北西,5.8,北北西,4.9,69.7,0,0,0,0.5
243,2024-02-05T04:02:00,2.8,北北西,5.8,北北西,5,69,0,0,0,0.5
244,2024-02-05T04:03:00,2.7,北北西,5.8,北北西,5,68.5,0,0,0,0.5
245,2024-02-05T04:04:00,2.8,北北西,5.8,北北西,5.1,67.7,0,0,0,0.5
246,2024-02-05T04:05:00,2.7,北北西,5.8,北北西,5.2,67.3,0,0,0,0.5
247,2024-02-05T04:06:00,2.8,北北西,5.8,北北西,5.1,67.4,0,0,0,0.5
248,2024-02-05T04:07:00,2.8,北北西,5.8,北北西,5.1,67.5,0,0,0,0.5
249,2024-02-05T04:08:00,2.7,北北西,5.8,北北西,5,67.6,0,0,0,0.5
250,2024-02-05T04:09:00,2.6,北北西,5.8,北北西,5.1,67.5,0,0,0,0.5
251,2024-02-05T04:10:00,2.4,北西,5,北北西,5.1,67.5,0,0,0,0.5
252,2024-02-05T04:11:00,2.4,北西,5.1,北北西,5.2,66.7,0,0,0,0.5
253,2024-02-05T04:12:00,2.4,北西,5.1,北北西,5.3,65.4,0,0,0,0.5
254,2024-02-05T04:13:00,2.4,北西,5.1,北北西,5.4,65.1,0,0,0,0.5
255,2024-02-05T04:14:00,2.2,北西,5.1,北北西,5.2,66.2,0,0,0,0.5
256,2024-02-05T04:15:00,2.1,北西,5.1,北北西,5.2,66.8,0,0,0,0.5
257,2024-02-05T04:16:00,2.1,北西,5.1,北北西,5.2,66.6,0,0,0,0.5
258,2024-02-05T04:17:00,2.1,北西,5.1,北北西,5.2,66.1,0,0,0,0.5
259,2024-02-05T04:18:00,2.2,北西,5.1,北北西,5.1,67.2,0,0,0,0.5
260,2024-02-05T04:19:00,2.4,北西,5.1,北北西,5.2,65.6,0,0,0,0.5
261,2024-02-05T04:20:00,2.5,北西,5.1,北北西,5.3,65.9,0,0,0,0.5
262,2024-02-05T04:21:00,2.3,北西,4.7,北西,5.2,66,0,0,0,0.5
263,2024-02-05T04:22:00,2.4,北西,5.2,西,5.2,66,0,0,0,0.5
264,2024-02-05T04:23:00,2.4,北西,5.2,西,5.3,65,0,0,0,0.5
265,2024-02-05T04:24:00,2.5,北西,5.2,西,5.3,65.2,0,0,0,0.5
266,2024-02-05T04:25:00,2.5,北西,5.2,西,5.2,66,0,0,0,0.5
267,2024-02-05T04:26:00,2.5,北北西,5.2,西,5.1,66.9,0,0,0,0.5
268,2024-02-05T04:27:00,2.5,北北西,5.2,西,5,67.5,0,0,0,0.5
269,2024-02-05T04:28:00,2.4,北北西,5.2,西,5,68.1,0,0,0,0.5
270,2024-02-05T04:29:00,2.4,北北西,5.2,西,5.1,66.7,0,0,0,0.5
271,2024-02-05T04:30:00,2.3,北西,5.2,西,5.3,65.8,0,0,0,0.5
272,2024-02-05T04:31:00,2.2,北西,5.2,西,5.3,65.5,0,0,0,0.5
273,2024-02-05T04:32:00,2.1,北北西,3.6,北北西,5.2,66.5,0,0,0,0.5
274,2024-02-05T04:33:00,2.1,北北西,3.6,北北西,4.9,68.5,0,0,0,0.5
275,2024-02-05T04:34:00,2,北北西,3.6,北北西,5,68.5,0,0,0,0.5
276,2024-02-05T04:35:00,1.8,北北西,3.6,北北西,4.9,68.8,0,0,0,0.5
277,2024-02-05T04:36:00,1.7,北北西,3.6,北北西,4.9,69.4,0,0,0,0.5
278,2024-02-05T04:37:00,1.7,北北西,3.6,北北西,4.9,69.9,0,0,0,0.5
279,2024-02-05T04:38:00,1.5,北北西,3.2,北西,4.8,70.5,0,0,0,0.5
280,2024-02-05T04:39:00,1.4,北北西,2.9,北,4.8,70.3,0,0,0,0.5
281,2024-02-05T04:40:00,1.3,北,2.9,北,4.8,70.2,0,0,0,0.5
282,2024-02-05T04:41:00,1.3,北,2.9,北,4.9,69.2,0,0,0,0.5
283,2024-02-05T04:42:00,1.3,北,2.9,北,4.9,69.3,0,0,0,0.5
284,2024-02-05T04:43:00,1.2,北,2.3,北西,5,68.9,0,0,0,0.5
285,2024-02-05T04:44:00,1.2,北北西,2.3,北西,5,68.8,0,0,0,0.5
286,2024-02-05T04:45:00,1.4,北北西,2.3,北西,4.9,69.8,0,0,0,0.5
287,2024-02-05T04:46:00,1.5,北北西,2.3,北西,4.8,70.7,0,0,0,0.5
288,2024-02-05T04:47:00,1.6,北北西,2.6,北,4.8,70.7,0,0,0,0.5
289,2024-02-05T04:48:00,1.6,北北西,2.6,北,4.7,71.1,0,0,0,0.5
290,2024-02-05T04:49:00,1.7,北北西,2.6,北,4.9,69.6,0,0,0,0.5
291,2024-02-05T04:50:00,1.7,北北西,2.6,北,5,68.9,0,0,0,0.5
292,2024-02-05T04:51:00,1.7,北北西,2.6,北,5.1,68.1,0,0,0,0.5
293,2024-02-05T04:52:00,1.7,北北西,2.6,北,5.2,67.7,0,0,0,0.5
294,2024-02-05T04:53:00,1.7,北北西,2.6,北,5.2,67.6,0,0,0,0.5
295,2024-02-05T04:54:00,1.6,北北西,2.6,北,5.2,67.2,0,0,0,0.5
296,2024-02-05T04:55:00,1.5,北北西,2.6,北,5.2,67.4,0,0,0,0.5
297,2024-02-05T04:56:00,1.4,北北西,2.6,北,5,68.7,0,0,0,0.5
298,2024-02-05T04:57:00,1.3,北北西,2.4,北北西,5,69.3,0,0,0,0.5
299,2024-02-05T04:58:00,1.2,北北西,2.4,北北東,4.9,69.8,0,0,0,0.5
300,2024-02-05T04:59:00,1.2,北北西,2.4,北北東,4.9,70.2,0,0,0,0.5
301,2024-02-05T05:00:00,1.3,北北西,2.4,北北東,4.8,70.4,0,0,0,0.5
302,2024-02-05T05:01:00,1.3,北北西,2.6,北北西,4.8,70.1,0,0,0,0.5
303,2024-02-05T05:02:00,1.3,北北西,2.6,北北西,4.9,69.6,0,0,0,0.5
304,2024-02-05T05:03:00,1.3,北,2.6,北北西,4.9,70,0,0,0,0.5
305,2024-02-05T05:04:00,1.4,北,2.6,北北西,4.8,70.4,0,0,0,0.5
306,2024-02-05T05:05:00,1.4,北,2.6,北北西,4.8,70.7,0,0,0,0.5
307,2024-02-05T05:06:00,1.5,北,2.6,北北西,4.8,71.2,0,0,0,0.5
308,2024-02-05T05:07:00,1.5,北,2.6,北北西,4.7,71.6,0,0,0,0.5
309,2024-02-05T05:08:00,1.4,北,2.6,北北西,4.6,72.2,0,0,0,0.5
310,2024-02-05T05:09:00,1.4,北,2.6,北北西,4.6,72.4,0,0,0,0.5
311,2024-02-05T05:10:00,1.3,北,2.6,北北西,4.7,72.4,0,0,0,0.5
312,2024-02-05T05:11:00,1.3,北,2.3,北北西,4.7,72,0,0,0,0.5
313,2024-02-05T05:12:00,1.3,北,2.4,北北東,4.7,71.5,0,0,0,0.5
314,2024-02-05T05:13:00,1.2,北,2.4,北北東,4.8,71.1,0,0,0,0.5
315,2024-02-05T05:14:00,1.1,北,2.4,北北東,4.7,71.5,0,0,0,0.5
316,2024-02-05T05:15:00,1.1,北,2.4,北北東,4.7,71.5,0,0,0,0.5
317,2024-02-05T05:16:00,1.1,北,2.4,北北東,4.7,71.6,0,0,0,0.5
318,2024-02-05T05:17:00,1.2,北,2.4,北北東,4.7,72.2,0,0,0,0.5
319,2024-02-05T05:18:00,1.2,北,2.4,北北東,4.7,72.2,0,0,0,0.5
320,2024-02-05T05:19:00,1.2,北,2.4,北北東,4.8,70.9,0,0,0,0.5
321,2024-02-05T05:20:00,1.2,北,2.4,北北東,4.8,70.7,0,0,0,0.5
322,2024-02-05T05:21:00,1.2,北,2.4,北北東,4.8,71.4,0,0,0,0.5
323,2024-02-05T05:22:00,1.1,北北西,1.7,北,4.7,72.2,0,0,0,0.5
324,2024-02-05T05:23:00,1.1,北北西,2.1,北,4.7,72.8,0,0,0,0.5
325,2024-02-05T05:24:00,1.2,北北西,2.1,北,4.7,72.8,0,0,0,0.5
326,2024-02-05T05:25:00,1.2,北北西,2.1,北,4.6,73.1,0,0,0,0.5
327,2024-02-05T05:26:00,1.2,北北西,2.1,北,4.5,73.9,0,0,0,0.5
328,2024-02-05T05:27:00,1.3,北北西,2.1,北,4.5,74,0,0,0,0.5
329,2024-02-05T05:28:00,1.4,北北西,2.5,北西,4.5,74.2,0,0,0,0.5
330,2024-02-05T05:29:00,1.5,北北西,2.5,北西,4.5,74.3,0,0,0,0.5
331,2024-02-05T05:30:00,1.6,北北西,2.5,北西,4.4,75.4,0,0,0,0.5
332,2024-02-05T05:31:00,1.7,北北西,2.5,北西,4.3,76.5,0,0,0,0.5
333,2024-02-05T05:32:00,1.8,北北西,2.5,北西,4.3,77.5,0,0,0,0.5
334,2024-02-05T05:33:00,1.8,北北西,2.5,北西,4.3,78.4,0,0,0,0.5
335,2024-02-05T05:34:00,1.8,北北西,2.5,北西,4.3,78.8,0,0,0,0.5
336,2024-02-05T05:35:00,1.8,北北西,2.5,北西,4.2,79,0,0,0,0.5
337,2024-02-05T05:36:00,1.7,北北西,2.5,北西,4.2,80,0,0,0,0.5
338,2024-02-05T05:37:00,1.6,北北西,2.5,北西,4.2,80.2,0,0,0,0.5
339,2024-02-05T05:38:00,1.4,北北西,2.5,北北西,4.2,79.3,0,0,0,0.5
340,2024-02-05T05:39:00,1.3,北北西,2.5,北北西,4.4,78.1,0,0,0,0.5
341,2024-02-05T05:40:00,1.3,北北西,2.5,北北西,4.3,78.1,0,0,0,0.5
342,2024-02-05T05:41:00,1.2,北北西,2.5,北北西,4.2,78.7,0,0,0,0.5
343,2024-02-05T05:42:00,1.2,北北西,3.1,北北西,4.2,79.6,0,0,0,0.5
344,2024-02-05T05:43:00,1.2,北北西,3.1,北北西,4.2,79.1,0,0,0,0.5
345,2024-02-05T05:44:00,1.2,北北西,3.1,北北西,4.2,80.9,0,0,0,0.5
346,2024-02-05T05:45:00,1.2,北北西,3.1,北北西,4.2,81,0,0,0,0.5
347,2024-02-05T05:46:00,1.3,北北西,3.1,北北西,4.2,81.3,0,0,0,0.5
348,2024-02-05T05:47:00,1.3,北北西,3.1,北北西,4.1,81.7,0,0,0,0.5
349,2024-02-05T05:48:00,1.4,北,3.1,北北西,4,82.4,0,0,0,0.5
350,2024-02-05T05:49:00,1.3,北北西,3.1,北北西,4.1,81.4,0,0,0,0.5
351,2024-02-05T05:50:00,1.3,北,3.1,北北西,4.1,82.4,0,0,0,0.5
352,2024-02-05T05:51:00,1.3,北,3.1,北北西,4.1,82.5,0,0,0,0.5
353,2024-02-05T05:52:00,1.3,北,2.7,北北東,4.1,82,0,0,0,0.5
354,2024-02-05T05:53:00,1.2,北,2.7,北北東,4.1,82.1,0,0,0,0.5
355,2024-02-05T05:54:00,1.2,北,2.7,北北東,4,83,0,0,0,0.5
356,2024-02-05T05:55:00,1.2,北,2.7,北北東,3.9,84,0,0,0,0.5
357,2024-02-05T05:56:00,1.3,北,2.7,北北東,3.9,83.9,0,0,0,0.5
358,2024-02-05T05:57:00,1.3,北,2.7,北北東,3.9,83.8,0,0,0,0.5
359,2024-02-05T05:58:00,1.4,北,2.7,北北東,3.9,83.8,0,0,0,0.5
360,2024-02-05T05:59:00,1.4,北,2.7,北北東,3.9,84.6,0,0,0,0.5
361,2024-02-05T06:00:00,1.5,北,2.7,北北東,3.8,85,0,0,0,0.5
362,2024-02-05T06:01:00,1.5,北,2.6,北,3.8,85.3,0,0,0,0.5
363,2024-02-05T06:02:00,1.5,北,2.6,北,3.7,86.5,0,0,0,0.5
364,2024-02-05T06:03:00,1.5,北,3.1,北北西,3.8,86.5,0,0,0,0.5
365,2024-02-05T06:04:00,1.5,北,3.1,北北西,3.7,86.9,0.5,0.5,0.5,1
366,2024-02-05T06:05:00,1.5,北,3.1,北北西,3.7,86.6,0.5,0.5,0.5,1
367,2024-02-05T06:06:00,1.5,北,3.1,北北西,3.7,85.5,0.5,0.5,0.5,1
368,2024-02-05T06:07:00,1.5,北,3.1,北北西,3.7,85.3,0.5,0.5,0.5,1
369,2024-02-05T06:08:00,1.5,北北西,3.1,北北西,3.7,85.6,0.5,0.5,0.5,1
370,2024-02-05T06:09:00,1.5,北北西,3.1,北北西,3.6,86.6,0.5,0.5,0.5,1
371,2024-02-05T06:10:00,1.5,北北西,3.1,北北西,3.6,86.6,0.5,0.5,0.5,1
372,2024-02-05T06:11:00,1.5,北西,3.1,北北西,3.6,86.7,0.5,0.5,0.5,1
373,2024-02-05T06:12:00,1.5,北西,3.1,北北西,3.5,86.9,0.5,0.5,0.5,1
374,2024-02-05T06:13:00,1.4,北西,2.9,北西,3.6,86.5,0.5,0.5,0.5,1
375,2024-02-05T06:14:00,1.5,北西,2.9,北西,3.5,87,0,0.5,0.5,1
376,2024-02-05T06:15:00,1.5,北西,2.9,北西,3.5,87.7,0,0.5,0.5,1
377,2024-02-05T06:16:00,1.4,北西,2.4,北,3.6,87.2,0,0.5,0.5,1
378,2024-02-05T06:17:00,1.2,北西,2.2,西北西,3.7,88,0,0.5,0.5,1
379,2024-02-05T06:18:00,1.2,北西,2.2,西北西,3.6,88.3,0,0.5,0.5,1
380,2024-02-05T06:19:00,1.2,北北西,2,北北西,3.5,88.8,0,0.5,0.5,1
381,2024-02-05T06:20:00,1.1,北北西,2,北北西,3.4,88.6,0,0.5,0.5,1
382,2024-02-05T06:21:00,1.1,北北西,2,北北西,3.4,88.8,0.5,1,1,1.5
383,2024-02-05T06:22:00,1.1,北北西,2.4,北,3.3,89.5,0.5,1,1,1.5
384,2024-02-05T06:23:00,1.2,北,2.4,北,3.3,89.9,0.5,1,1,1.5
385,2024-02-05T06:24:00,1.1,北,2.4,北,3.3,89.9,0.5,1,1,1.5
386,2024-02-05T06:25:00,1.1,北,2.4,北,3.4,89.8,0.5,1,1,1.5
387,2024-02-05T06:26:00,1,北,2.4,北,3.4,89.3,0.5,1,1,1.5
388,2024-02-05T06:27:00,1.1,北,2.4,北,3.4,89.4,0.5,1,1,1.5
389,2024-02-05T06:28:00,1.1,北,2.4,北,3.3,90,0.5,1,1,1.5
390,2024-02-05T06:29:00,1.1,北,2.4,北,3.3,90.5,0.5,1,1,1.5
391,2024-02-05T06:30:00,1.2,北,2.4,北,3.2,91,0.5,1,1,1.5
392,2024-02-05T06:31:00,1.2,北,2.4,北,3.2,91.8,0,1,1,1.5
393,2024-02-05T06:32:00,1.1,北,2.4,北,3.2,92.4,0,1,1,1.5
394,2024-02-05T06:33:00,1,北,1.8,北北西,3.1,92.9,0,1,1,1.5
395,2024-02-05T06:34:00,1,北北西,1.8,北北西,3.1,92.9,0,1,1,1.5
396,2024-02-05T06:35:00,1,北北西,1.8,北北西,3,93.1,0,1,1,1.5
397,2024-02-05T06:36:00,0.9,北北西,1.8,北北西,3.2,93.6,0,1,1,1.5
398,2024-02-05T06:37:00,0.8,北北西,1.8,北北西,3.2,94,0.5,1.5,1.5,2
399,2024-02-05T06:38:00,0.8,北北西,1.8,北北西,3.1,93.4,0.5,1.5,1.5,2
400,2024-02-05T06:39:00,0.8,北北西,1.8,北北西,3.1,92.6,0.5,1.5,1.5,2
401,2024-02-05T06:40:00,0.7,北北西,1.6,北西,3.1,92.5,0.5,1.5,1.5,2
402,2024-02-05T06:41:00,0.7,北北西,1.6,北西,3.1,93,0.5,1.5,1.5,2
403,2024-02-05T06:42:00,0.7,北北西,1.6,北西,3.1,93.5,0.5,1.5,1.5,2
404,2024-02-05T06:43:00,0.7,北北西,1.6,北西,3.2,93.7,0.5,1.5,1.5,2
405,2024-02-05T06:44:00,0.7,北北西,1.6,北西,3.1,93.5,0.5,1.5,1.5,2
406,2024-02-05T06:45:00,0.7,北北西,1.6,北西,3.1,93.1,0.5,1.5,1.5,2
407,2024-02-05T06:46:00,0.8,北西,1.6,北西,3,93.7,0.5,1.5,1.5,2
408,2024-02-05T06:47:00,0.9,北西,1.6,北西,3,93.9,0,1.5,1.5,2
409,2024-02-05T06:48:00,0.8,北西,1.6,北西,3,94,0,1.5,1.5,2
410,2024-02-05T06:49:00,0.9,北西,2.1,北西,2.9,94.2,0,1.5,1.5,2
411,2024-02-05T06:50:00,0.9,北西,2.5,北西,3,93.8,0,1.5,1.5,2
412,2024-02-05T06:51:00,1,北西,2.5,北西,3.1,93.4,0,1.5,1.5,2
413,2024-02-05T06:52:00,1,北西,2.5,北西,3.2,93.1,0,1.5,1.5,2
414,2024-02-05T06:53:00,1.1,北西,2.5,北西,3.2,93.2,0.5,2,2,2.5
415,2024-02-05T06:54:00,1.1,北西,2.5,北西,3.1,92.8,0.5,2,2,2.5
416,2024-02-05T06:55:00,1,北西,2.5,北西,3.1,92.5,0.5,2,2,2.5
417,2024-02-05T06:56:00,1,北北西,2.5,北西,3.2,92.3,0.5,2,2,2.5
418,2024-02-05T06:57:00,1.1,北北西,2.7,北東,3.2,92,0.5,2,2,2.5
419,2024-02-05T06:58:00,1.3,北,3.4,北東,3.2,91.7,0.5,2,2,2.5
420,2024-02-05T06:59:00,1.3,北,3.4,北東,3.2,91.2,0.5,2,2,2.5
421,2024-02-05T07:00:00,1.3,北北東,3.4,北東,3.2,91.3,0.5,2,2,2.5